Regional Weather Roundup
Issued by NWS Charleston, SC

Current Version | Previous Version | Graphics & Text | Print | Product List | Glossary On
Versions: 1 2 3 4 5 6 7 8 9 10 11 12 13 14 15 16 17 18 19 20 21 22 23 24 25 26 27 28 29 30 31 32 33 34 35 36 37 38 39 40 41 42 43 44 45 46 47 48 49 50
000 ASUS42 KCHS 011012 RWRCHS REGIONAL WEATHER ROUNDUP NATIONAL WEATHER SERVICE CHARLESTON SC 600 AM EDT WED JUL 01 2015 NOTE: "FAIR" INDICATES FEW OR NO CLOUDS BELOW 12,000 FEET WITH NO SIGNIFICANT WEATHER AND/OR OBSTRUCTIONS TO VISIBILITY. NOT ALL STATIONS ARE QUALITY CONTROLLED BY THE NATIONAL WEATHER SERVICE. USE DATA WITH CAUTION...ESPECIALLY DEWPOINT OBSERVATIONS. SCZ027-030-031-034>040-042>050-011100- ...SOUTHEAST SOUTH CAROLINA... CITY SKY/WX TMP DP RH WIND PRES REMARKS N CHARLESTON PTCLDY 71 69 93 W6 29.99F WATERFRONT PAR N/A 74 71 90 SW5 29.98R MOUNT PLEASANT LGT RAIN 73 72 94 SW5 30.00S JOHNS ISLAND FAIR 73 70 88 SW5 30.00S PINOPOLIS NOT AVBL MONCKS CORNER CLOUDY 72 68 88 SW5 29.99R SUMMERVILLE PTSUNNY 70 70 100 CALM 30.00S BEAUFORT MCAS CLEAR 72 69 90 SW10 30.02R BEAUFORT ARPT FAIR 73 70 88 SW8 30.02R HILTON HEAD IS NOT AVBL WALTERBORO SUNNY 68 68 100 SW6 30.01S ALLENDALE FAIR 70 70 100 CALM 30.00R ...SOUTHERN MIDLANDS AND PEE DEE... CITY SKY/WX TMP DP RH WIND PRES REMARKS GEORGETOWN NOT AVBL KINGSTREE NOT AVBL ORANGEBURG CLOUDY 71 68 90 S5 29.98F BARNWELL FAIR 70 70 100 SW5 30.00S AIKEN NOT AVBL MANNING RAIN 70 70 100 SW3 29.98S COLUMBIA MOCLDY 71 67 87 W7 29.96S SUMTER CLEAR 70 68 93 S6 29.95S FLORENCE CLOUDY 72 69 90 SW7 29.97S MYRTLE BEACH CLEAR 73 66 78 W7 29.99F N MYRTLE BEACH CLEAR 73 68 84 W7 29.97S $$ GAZ063-065-086>088-099>101-113>116-118-119-134>141-150-011100- ...SOUTHEAST GEORGIA... CITY SKY/WX TMP DP RH WIND PRES REMARKS SAVANNAH ARPT PTCLDY 72 67 84 SW6 30.03S HUNTER AAF PTCLDY 71 70 97 SW6 30.02R FORT STEWART PTCLDY 72 67 85 SW9 30.02R STATESBORO CLEAR 70 32 24 W6 30.03R SYLVANIA SUNNY 72 71 98 W3 30.02S CLAXTON FAIR 70 68 94 CALM 30.04R ...CSRA...CENTRAL AND FAR SOUTHEAST GEORGIA... CITY SKY/WX TMP DP RH WIND PRES REMARKS THOMSON CLEAR 71 70 98 CALM 30.05S AUGUSTA-BUSH CLEAR 70 67 90 W6 29.98F AUGUSTA-DANIEL CLEAR 71 66 84 VRB3 30.00S SWAINSBORO FAIR N/A N/A N/A W7 30.04S VIDALIA HVY RAIN 70 68 94 SW8 30.05S EASTMAN FAIR 69 69 100 CALM 30.08S HAZLEHURST PTSUNNY 71 70 97 CALM 30.05S ALMA CLEAR 70 66 87 SW5 30.07R WAYCROSS CLEAR 71 70 97 SW3 30.07S JESUP FAIR 73 70 88 W3 30.06S BAXLEY FAIR 72 68 88 CALM 30.06S BRUNSWICK PTCLDY 72 68 88 SW6 30.07S SAINT SIMONS PTCLDY 71 67 87 SW9 30.06S $$ SCZ027-028-034-036>038-045-046-048>050-GAZ119-141-011100- ...LAKE AND SUPPLEMENTAL COASTAL OBSERVATIONS... STATION/POSITION TIME TEMP WIND PRES WAVE SWELL AIR SEA DIR/SP/G HT/PER HT/PER/DIR (UTC) (F) (DEG/KT/KT) (MB) (FT/S) (FT/S/D) UPR LAKE MARION NOT AVBL WINYAH BAY 0845 73 230/ 8 1015.0 LAKE MURRAY 0900 74 260/ 11/ 14 1013.9S ACE BASIN NERRS NOT AVBL FORT PULASKI 0900 73 84 240/ 7/ 9 1017.2R SAPELO ISLAND 0900 73 230/ 12 1018.0S $$ ANZ835-935-AMZ111-154-330-350-352-354-370-450-454-472-011100- ...C-MAN AND BUOY OBSERVATIONS... STATION/POSITION TIME TEMP WIND PRES WAVE SWELL AIR SEA DIR/SP/G HT/PER HT/PER/DIR (UTC) (F) (DEG/KT/KT) (MB) (FT/S) (FT/S/D) BUOY 41004 0950 80 82 240/ 16/ 17 1015.3F 4/ 5 2/ 8 BUOY 41008 0950 76 79 250/ 14/ 17 1017.6R 3/ 4 2/ 90/ 8 FOLLY BEACH CMAN 0900 75 230/ 9/ 12 1016.0F CAPERS NEARSHORE 0908 78 250/ 14/ 17 1015.7F FRIPP NEARSHORE 0900 78 280/ 16/ 17 1016.1 STATION/POSITION TIME TEMP WIND PRES WAVE SWELL AIR SEA DIR/SP/G HT/PER HT/PER/DIR (UTC) (F) (DEG/KT/KT) (MB) (FT/S) (FT/S/D) 5E ST. MARYS GA 0921 78 N/A 2/ 8 FRYING PAN BUOY 0950 80 80 240/ 17/ 21 1015.3F 5/ 6 2/120/ 8 BUOY 41025 0950 82 82 220/ 19/ 23 1013.6F 6/ 5 2/170/ 8 CAPE LOOKOUT NC 0900 80 230/ 13/ 18 1013.5F BUOY 41002 0950 82 80 230/ 17/ 19 1017.9R 6/ 7 3/100/13 BUOY 41010 0920 82 84 230/ 16/ 17 1019.3F ST AUGUSTINE FL 1000 72 73 250/ 5/ 7 1020.2R $$

USA.gov is the U.S. government's official web portal to all federal, state and local government web resources and services.